Weather History for Bolton Field, OH

Change the Weather History Date:

Friday, February 15, 2013

  Actual Average Record
Temperature  
Mean Temperature 30 °F -  
Max Temperature 36 °F 40 °F 64 °F (2005)
Min Temperature 25 °F 26 °F -2 °F (2007)
Degree Days  
Heating Degree Days 35    
Moisture  
Dew Point 27 °F    
Average Humidity 88    
Maximum Humidity 100    
Minimum Humidity 75    
Precipitation  
Precipitation 0.00 in - - ()
Sea Level Pressure  
Sea Level Pressure 30.03 in    
Wind  
Wind Speed 5 mph (West)    
Max Wind Speed 14 mph    
Max Gust Speed -    
Visibility 8 miles    
Events Snow    
Averages and records for this station are not official NWS values.
T = Trace of Precipitation, MM = Missing Value Source: NWS Daily Summary

Daily Weather History Graph

Daily Weather History Graph

Search for Another Location

Airport:

Trip Planner

Search our weather history database for the weather conditions in past years. The results will help you decide how hot, cold, wet, or windy it might be!

Date:

Astronomy

Feb. 15, 2013 Rise Set
Actual Time 7:24 AM EST 6:08 PM EST
Civil Twilight 6:57 AM EST 6:36 PM EST
Nautical Twilight 6:25 AM EST 7:08 PM EST
Astronomical Twilight 5:54 AM EST 7:39 PM EST
Moon 10:00 AM EST (2/15) No Moon Set
Length of Visible Light 11h 39m
Length of Day
10h 44m
Waxing Crescent, 30% of the Moon is Illuminated
Feb 15
Waxing Crescent
Feb 17
First Quarter
Feb 25
Full
Mar 4
Last Quarter
Mar 11
New

Hourly Weather History & Observations

Time (EST) Temp. Windchill Dew Point Humidity Pressure Visibility Wind Dir Wind Speed Gust Speed Precip Events Conditions
12:15 AM 32.9 °F 29.8 °F 28.0 °F 82% 29.97 in 10.0 mi WSW 3.5 mph - N/A   Scattered Clouds
12:35 AM 32.0 °F 27.5 °F 27.3 °F 83% 29.97 in 10.0 mi WSW 4.6 mph - N/A   Clear
12:55 AM 33.1 °F 28.7 °F 27.7 °F 81% 29.97 in 10.0 mi West 4.6 mph - N/A   Clear
1:15 AM 31.5 °F 25.8 °F 26.6 °F 82% 29.97 in 10.0 mi SW 5.8 mph - N/A   Clear
1:35 AM 28.8 °F 22.6 °F 25.9 °F 89% 29.97 in 10.0 mi SW 5.8 mph - N/A   Clear
1:55 AM 30.0 °F 26.5 °F 27.1 °F 89% 29.97 in 10.0 mi WSW 3.5 mph - N/A   Clear
2:15 AM 28.9 °F 22.8 °F 25.5 °F 87% 29.97 in 10.0 mi SW 5.8 mph - N/A   Clear
2:35 AM 28.4 °F 22.2 °F 26.1 °F 91% 29.97 in 10.0 mi SSW 5.8 mph - N/A   Clear
2:55 AM 27.1 °F 19.7 °F 25.3 °F 93% 29.97 in 7.0 mi SSW 6.9 mph - N/A   Clear
3:15 AM 27.3 °F 20.9 °F 25.3 °F 92% 29.98 in 7.0 mi SW 5.8 mph - N/A   Clear
3:35 AM 27.3 °F 20.9 °F 25.7 °F 94% 29.98 in 7.0 mi SW 5.8 mph - N/A   Clear
3:55 AM 27.3 °F 22.0 °F 25.7 °F 94% 29.98 in 7.0 mi WSW 4.6 mph - N/A   Clear
4:15 AM 26.8 °F 20.2 °F 24.6 °F 92% 29.98 in 10.0 mi SW 5.8 mph - N/A   Clear
4:35 AM 28.2 °F 24.4 °F 25.5 °F 90% 29.98 in 10.0 mi WSW 3.5 mph - N/A   Clear
4:55 AM 27.1 °F 21.8 °F 24.4 °F 90% 29.99 in 10.0 mi SW 4.6 mph - N/A   Clear
5:15 AM 28.0 °F - 25.3 °F 90% 29.99 in 10.0 mi North - - N/A   Scattered Clouds
5:35 AM 28.2 °F 24.4 °F 25.7 °F 90% 30.00 in 10.0 mi WSW 3.5 mph - N/A   Mostly Cloudy
5:55 AM 30.7 °F - 27.3 °F 87% 30.01 in 10.0 mi North - - N/A   Overcast
6:15 AM 30.7 °F - 27.5 °F 88% 30.01 in 10.0 mi North - - N/A   Overcast
6:35 AM 30.0 °F - 27.5 °F 90% 30.01 in 10.0 mi North - - N/A   Overcast
6:55 AM 30.2 °F - 27.9 °F 91% 30.01 in 7.0 mi North - - N/A   Overcast
7:15 AM 31.1 °F - 28.2 °F 89% 30.02 in 10.0 mi North - - N/A   Overcast
7:20 AM 30.2 °F - 28.4 °F 93% 30.02 in 10.0 mi Calm Calm - N/A   Overcast
7:58 AM 30.2 °F - 28.4 °F 93% 30.03 in 10.0 mi Calm Calm - N/A   Overcast
8:58 AM 33.8 °F 29.6 °F 30.2 °F 87% 30.06 in 10.0 mi WSW 4.6 mph - N/A   Overcast
9:50 AM 35.6 °F 32.8 °F 30.2 °F 81% 30.06 in 10.0 mi SW 3.5 mph - N/A   Overcast
10:50 AM 35.6 °F 30.7 °F 28.4 °F 75% 30.05 in 10.0 mi WNW 5.8 mph - N/A   Overcast
11:50 AM 33.8 °F - 30.2 °F 87% 30.05 in 10.0 mi Calm Calm - N/A   Overcast
12:05 PM 33.8 °F 30.8 °F 28.4 °F 81% 30.05 in 2.5 mi WNW 3.5 mph - N/A Snow Light Snow
12:15 PM 33.8 °F 30.8 °F 30.2 °F 87% 30.04 in 3.0 mi NNW 3.5 mph - N/A Snow Light Snow
12:47 PM 32.0 °F 24.2 °F 30.2 °F 93% 30.04 in 3.0 mi NW 9.2 mph - N/A Snow Light Snow
1:05 PM 32.0 °F 25.6 °F 30.2 °F 93% 30.03 in 2.0 mi NW 6.9 mph - N/A Snow Light Snow
1:15 PM 32.0 °F 24.8 °F 30.2 °F 93% 30.03 in 1.0 mi NW 8.1 mph - N/A Snow Light Snow
1:25 PM 32.0 °F 25.6 °F 30.2 °F 93% 30.03 in 0.5 mi NW 6.9 mph - N/A Snow Snow
1:50 PM 30.2 °F 24.3 °F 30.2 °F 100% 30.03 in 0.8 mi NW 5.8 mph - N/A Snow Snow
2:15 PM 32.0 °F 24.8 °F 30.2 °F 93% 30.03 in 4.0 mi WNW 8.1 mph - N/A Snow Light Snow
2:50 PM 32.0 °F 24.8 °F 30.2 °F 93% 30.03 in 7.0 mi NW 8.1 mph - N/A   Mostly Cloudy
3:50 PM 35.6 °F 29.2 °F 30.2 °F 81% 30.03 in 10.0 mi WNW 8.1 mph - N/A   Mostly Cloudy
4:50 PM 33.8 °F 27.0 °F 28.4 °F 81% 30.04 in 10.0 mi NW 8.1 mph - N/A   Mostly Cloudy
5:50 PM 33.8 °F 27.7 °F 28.4 °F 81% 30.05 in 10.0 mi WNW 6.9 mph - N/A   Overcast
6:50 PM 30.2 °F 19.8 °F 28.4 °F 93% 30.08 in 2.5 mi NW 13.8 mph - N/A Snow Light Snow
8:15 PM 28.8 °F 21.7 °F 23.0 °F 79% 30.10 in 10.0 mi NW 6.9 mph - N/A   Overcast
8:35 PM 28.2 °F 22.0 °F 23.9 °F 84% 30.11 in 10.0 mi WNW 5.8 mph - N/A   Overcast
8:55 PM 27.1 °F 23.2 °F 23.5 °F 86% 30.11 in 10.0 mi WNW 3.5 mph - N/A   Overcast
9:15 PM 26.8 °F 22.8 °F 23.2 °F 86% 30.12 in 10.0 mi West 3.5 mph - N/A   Mostly Cloudy
9:35 PM 26.6 °F 22.6 °F 23.0 °F 86% 30.12 in 10.0 mi West 3.5 mph - N/A   Mostly Cloudy
9:55 PM 26.1 °F - 23.0 °F 88% 30.12 in 10.0 mi North - - N/A   Scattered Clouds
10:15 PM 26.2 °F - 23.0 °F 88% 30.12 in 10.0 mi Calm Calm - N/A   Scattered Clouds
10:35 PM 25.3 °F - 22.8 °F 90% 30.12 in 10.0 mi North - - N/A   Mostly Cloudy
10:55 PM 25.7 °F - 23.4 °F 91% 30.11 in 10.0 mi North - - N/A   Overcast
11:15 PM 26.2 °F - 23.0 °F 88% 30.11 in 10.0 mi North - - N/A   Overcast
11:35 PM 27.0 °F 21.6 °F 22.1 °F 82% 30.11 in 10.0 mi West 4.6 mph - N/A   Overcast
11:55 PM 26.1 °F 19.4 °F 20.8 °F 81% 30.11 in 10.0 mi West 5.8 mph - N/A   Scattered Clouds